Time,TemperatureF,DewpointF,PressureIn,WindDirection,WindDirectionDegrees,WindSpeedMPH,WindSpeedGustMPH,Humidity,HourlyPrecipIn,Conditions,Clouds,dailyrainin,SoftwareType,DateUTC
2013-03-01 00:02:00,68.4,67.8,29.55,North,360,1.1,1.5,98,0.00,RA,,0.00,WeatherDisplay:10.37,2013-02-28 22:02:00,
2013-03-01 00:07:00,68.7,68.1,29.56,North,360,0.0,0.0,98,0.00,RA,,0.00,WeatherDisplay:10.37,2013-02-28 22:07:00,
2013-03-01 00:12:00,68.9,68.3,29.56,North,360,1.1,1.1,98,0.00,CLR,,0.00,WeatherDisplay:10.37,2013-02-28 22:12:00,
2013-03-01 00:17:00,68.9,68.3,29.56,North,360,1.7,1.7,98,0.00,CLR,,0.00,WeatherDisplay:10.37,2013-02-28 22:17:00,
2013-03-01 00:22:00,68.2,67.6,29.56,North,360,0.0,0.0,98,0.00,CLR,,0.00,WeatherDisplay:10.37,2013-02-28 22:22:00,
2013-03-01 00:27:00,68.4,67.8,29.56,North,360,0.0,0.0,98,0.00,CLR,,0.00,WeatherDisplay:10.37,2013-02-28 22:27:00,
2013-03-01 00:32:00,68.5,67.9,29.56,North,360,0.0,0.0,98,0.00,CLR,,0.00,WeatherDisplay:10.37,2013-02-28 22:32:00,
2013-03-01 00:37:00,68.9,68.3,29.56,North,360,0.0,0.0,98,0.00,CLR,,0.00,WeatherDisplay:10.37,2013-02-28 22:37:00,
2013-03-01 00:42:00,68.7,68.1,29.55,North,360,0.0,0.0,98,0.00,CLR,,0.00,WeatherDisplay:10.37,2013-02-28 22:42:00,
2013-03-01 00:47:00,69.4,68.8,29.55,North,360,1.1,1.1,98,0.00,CLR,,0.00,WeatherDisplay:10.37,2013-02-28 22:47:00,
2013-03-01 00:52:00,68.4,67.8,29.55,North,360,0.0,0.0,98,0.00,CLR,,0.00,WeatherDisplay:10.37,2013-02-28 22:52:00,
2013-03-01 00:57:00,68.2,67.6,29.55,North,360,0.0,0.0,98,0.00,CLR,,0.00,WeatherDisplay:10.37,2013-02-28 22:57:00,
2013-03-01 01:02:00,67.3,66.7,29.55,North,360,0.0,0.0,98,0.00,CLR,,0.00,WeatherDisplay:10.37,2013-02-28 23:02:00,
2013-03-01 01:07:00,67.8,67.2,29.55,North,360,2.3,2.5,98,0.00,CLR,,0.00,WeatherDisplay:10.37,2013-02-28 23:07:00,
2013-03-01 01:12:00,67.3,66.7,29.55,North,360,2.3,2.3,98,0.00,CLR,,0.00,WeatherDisplay:10.37,2013-02-28 23:12:00,
2013-03-01 01:17:00,67.3,66.7,29.55,North,360,0.0,0.0,98,0.00,CLR,,0.00,WeatherDisplay:10.37,2013-02-28 23:17:00,
2013-03-01 01:22:00,67.3,66.7,29.55,North,360,0.0,0.0,98,0.00,CLR,,0.00,WeatherDisplay:10.37,2013-02-28 23:22:00,
2013-03-01 01:27:00,67.6,67.0,29.55,North,360,0.0,0.0,98,0.00,CLR,,0.00,WeatherDisplay:10.37,2013-02-28 23:27:00,
2013-03-01 01:32:00,66.9,66.3,29.55,North,360,2.3,2.3,98,0.00,CLR,,0.00,WeatherDisplay:10.37,2013-02-28 23:32:00,
2013-03-01 01:37:00,67.6,67.0,29.55,North,360,2.3,2.4,98,0.00,CLR,,0.00,WeatherDisplay:10.37,2013-02-28 23:37:00,
2013-03-01 01:42:00,66.9,66.3,29.55,West,270,2.7,2.7,98,0.00,CLR,,0.00,WeatherDisplay:10.37,2013-02-28 23:42:00,
2013-03-01 01:47:00,67.3,66.7,29.55,NNW,338,2.3,2.3,98,0.00,CLR,,0.00,WeatherDisplay:10.37,2013-02-28 23:47:00,
2013-03-01 01:52:00,67.3,66.7,29.55,NNW,338,2.3,2.3,98,0.00,CLR,,0.00,WeatherDisplay:10.37,2013-02-28 23:52:00,
2013-03-01 01:57:00,66.4,65.8,29.54,NNW,338,0.0,0.0,98,0.00,CLR,,0.00,WeatherDisplay:10.37,2013-02-28 23:57:00,
2013-03-01 02:02:00,67.3,66.7,29.54,West,270,2.3,2.3,98,0.00,CLR,,0.00,WeatherDisplay:10.37,2013-03-01 00:02:00,
2013-03-01 02:07:00,67.1,66.5,29.54,SW,225,3.5,3.5,98,0.00,CLR,,0.00,WeatherDisplay:10.37,2013-03-01 00:07:00,
2013-03-01 02:12:00,68.0,67.4,29.54,West,270,2.3,2.3,98,0.00,CLR,,0.00,WeatherDisplay:10.37,2013-03-01 00:12:00,
2013-03-01 02:17:00,66.9,66.3,29.54,West,270,1.1,1.1,98,0.00,CLR,,0.00,WeatherDisplay:10.37,2013-03-01 00:17:00,
2013-03-01 02:22:00,66.6,66.0,29.54,West,270,0.0,0.0,98,0.00,CLR,,0.00,WeatherDisplay:10.37,2013-03-01 00:22:00,
2013-03-01 02:27:00,66.0,65.4,29.54,West,270,0.0,0.0,98,0.00,CLR,,0.00,WeatherDisplay:10.37,2013-03-01 00:27:00,
2013-03-01 02:32:00,66.4,65.8,29.53,SSW,202,0.0,0.0,98,0.00,CLR,,0.00,WeatherDisplay:10.37,2013-03-01 00:32:00,
2013-03-01 02:37:00,66.2,65.6,29.53,SSW,202,0.0,0.0,98,0.00,CLR,,0.00,WeatherDisplay:10.37,2013-03-01 00:37:00,
2013-03-01 02:42:00,66.7,66.1,29.52,SW,225,0.0,0.0,98,0.00,CLR,,0.00,WeatherDisplay:10.37,2013-03-01 00:42:00,
2013-03-01 02:47:00,65.5,64.9,29.52,SSW,202,1.7,1.7,98,0.00,CLR,,0.00,WeatherDisplay:10.37,2013-03-01 00:47:00,
2013-03-01 02:52:00,65.1,64.5,29.52,SSW,202,2.3,2.3,98,0.00,CLR,,0.00,WeatherDisplay:10.37,2013-03-01 00:52:00,
2013-03-01 02:57:00,64.6,64.0,29.52,SW,225,1.7,1.7,98,0.00,CLR,,0.00,WeatherDisplay:10.37,2013-03-01 00:57:00,
2013-03-01 03:02:00,65.3,64.7,29.52,SSW,202,0.0,0.0,98,0.00,CLR,,0.00,WeatherDisplay:10.37,2013-03-01 01:02:00,
2013-03-01 03:07:00,66.4,65.8,29.51,South,180,0.0,0.0,98,0.00,CLR,,0.00,WeatherDisplay:10.37,2013-03-01 01:07:00,
2013-03-01 03:12:00,65.7,65.1,29.51,South,180,0.0,0.0,98,0.00,CLR,,0.00,WeatherDisplay:10.37,2013-03-01 01:12:00,
2013-03-01 03:17:00,65.7,65.1,29.52,South,180,0.0,0.0,98,0.00,CLR,,0.00,WeatherDisplay:10.37,2013-03-01 01:17:00,
2013-03-01 03:23:00,65.5,64.9,29.52,South,180,0.0,0.0,98,0.00,CLR,,0.00,WeatherDisplay:10.37,2013-03-01 01:23:00,
2013-03-01 03:28:00,65.7,65.1,29.52,SSW,202,1.1,1.1,98,0.00,CLR,,0.00,WeatherDisplay:10.37,2013-03-01 01:28:00,
2013-03-01 03:33:00,65.7,65.1,29.52,SSW,202,0.0,0.0,98,0.00,CLR,,0.00,WeatherDisplay:10.37,2013-03-01 01:33:00,
2013-03-01 03:38:00,65.5,64.9,29.52,SSW,202,1.1,1.3,98,0.00,CLR,,0.00,WeatherDisplay:10.37,2013-03-01 01:38:00,
2013-03-01 03:43:00,64.6,64.0,29.51,SSW,202,1.7,1.7,98,0.00,CLR,,0.00,WeatherDisplay:10.37,2013-03-01 01:43:00,
2013-03-01 03:48:00,65.5,64.9,29.51,SW,225,1.7,1.7,98,0.00,CLR,,0.00,WeatherDisplay:10.37,2013-03-01 01:48:00,
2013-03-01 03:53:00,65.3,64.7,29.51,SSW,202,0.0,0.0,98,0.00,CLR,,0.00,WeatherDisplay:10.37,2013-03-01 01:53:00,
2013-03-01 03:58:00,65.1,64.5,29.52,SSW,202,0.0,0.0,98,0.00,CLR,,0.00,WeatherDisplay:10.37,2013-03-01 01:58:00,
2013-03-01 04:03:00,64.4,63.8,29.52,SSW,202,0.0,0.0,98,0.00,CLR,,0.00,WeatherDisplay:10.37,2013-03-01 02:03:00,
2013-03-01 04:08:00,64.8,64.2,29.51,SSW,202,0.0,0.0,98,0.00,CLR,,0.00,WeatherDisplay:10.37,2013-03-01 02:08:00,
2013-03-01 04:13:00,65.5,64.9,29.51,SSW,202,0.0,0.0,98,0.00,CLR,,0.00,WeatherDisplay:10.37,2013-03-01 02:13:00,
2013-03-01 04:18:00,64.4,63.8,29.51,SSW,202,0.0,0.0,98,0.00,CLR,,0.00,WeatherDisplay:10.37,2013-03-01 02:18:00,
2013-03-01 04:23:00,64.2,63.6,29.51,SW,225,0.0,0.0,98,0.00,CLR,,0.00,WeatherDisplay:10.37,2013-03-01 02:23:00,
2013-03-01 04:28:00,63.7,63.1,29.51,SSW,202,0.0,0.0,98,0.00,CLR,,0.00,WeatherDisplay:10.37,2013-03-01 02:28:00,
2013-03-01 04:33:00,63.5,62.9,29.51,SSW,202,0.0,0.0,98,0.00,CLR,,0.00,WeatherDisplay:10.37,2013-03-01 02:33:00,
2013-03-01 04:38:00,64.6,64.0,29.51,South,180,0.0,0.0,98,0.00,CLR,,0.00,WeatherDisplay:10.37,2013-03-01 02:38:00,
2013-03-01 04:43:00,63.3,62.7,29.51,South,180,1.1,1.1,98,0.00,CLR,,0.00,WeatherDisplay:10.37,2013-03-01 02:43:00,
2013-03-01 04:48:00,64.4,63.8,29.51,South,180,1.1,1.4,98,0.00,CLR,,0.00,WeatherDisplay:10.37,2013-03-01 02:48:00,
2013-03-01 04:53:00,65.5,64.9,29.50,SSW,202,2.3,2.3,98,0.00,CLR,,0.00,WeatherDisplay:10.37,2013-03-01 02:53:00,
2013-03-01 04:58:00,64.2,63.6,29.50,South,180,0.0,0.0,98,0.00,CLR,,0.00,WeatherDisplay:10.37,2013-03-01 02:58:00,
2013-03-01 05:03:00,64.6,64.0,29.50,SSE,158,0.0,0.0,98,0.00,CLR,,0.00,WeatherDisplay:10.37,2013-03-01 03:03:00,
2013-03-01 05:08:00,64.0,63.4,29.51,WSW,248,0.0,0.0,98,0.00,CLR,,0.00,WeatherDisplay:10.37,2013-03-01 03:08:00,
2013-03-01 05:13:00,64.9,64.3,29.51,SW,225,2.3,2.3,98,0.00,CLR,,0.00,WeatherDisplay:10.37,2013-03-01 03:13:00,
2013-03-01 05:18:00,64.6,64.0,29.51,WSW,248,1.7,1.7,98,0.00,CLR,,0.00,WeatherDisplay:10.37,2013-03-01 03:18:00,
2013-03-01 05:23:00,65.5,64.9,29.51,SW,225,1.7,1.7,98,0.00,CLR,,0.00,WeatherDisplay:10.37,2013-03-01 03:23:00,
2013-03-01 05:28:00,65.4,64.8,29.51,SW,225,0.0,2.0,98,0.00,CLR,,0.00,WeatherDisplay:10.37,2013-03-01 03:28:00,
2013-03-01 05:33:00,65.7,65.1,29.52,SW,225,0.0,0.0,98,0.00,CLR,,0.00,WeatherDisplay:10.37,2013-03-01 03:33:00,
2013-03-01 05:38:00,65.3,64.7,29.52,SSW,202,0.0,0.0,98,0.00,CLR,,0.00,WeatherDisplay:10.37,2013-03-01 03:38:00,
2013-03-01 05:43:00,65.9,65.3,29.51,WSW,242,1.0,2.0,98,0.00,CLR,,0.00,WeatherDisplay:10.37,2013-03-01 03:43:00,
2013-03-01 05:48:00,66.6,66.0,29.51,NNW,338,0.0,0.0,98,0.00,CLR,,0.00,WeatherDisplay:10.37,2013-03-01 03:48:00,
2013-03-01 05:53:00,66.6,66.0,29.52,NNW,338,0.0,0.0,98,0.00,CLR,,0.00,WeatherDisplay:10.37,2013-03-01 03:53:00,
2013-03-01 05:58:00,65.8,65.2,29.52,NNW,338,0.0,0.0,98,0.00,CLR,,0.00,WeatherDisplay:10.37,2013-03-01 03:58:00,
2013-03-01 06:03:00,66.4,65.8,29.52,NNW,338,0.0,0.0,98,0.00,CLR,,0.00,WeatherDisplay:10.37,2013-03-01 04:03:00,
2013-03-01 06:08:00,66.4,65.8,29.53,NNW,338,1.7,1.7,98,0.00,CLR,,0.00,WeatherDisplay:10.37,2013-03-01 04:08:00,
2013-03-01 06:13:00,65.8,65.2,29.53,NW,317,2.0,2.0,98,0.00,CLR,,0.00,WeatherDisplay:10.37,2013-03-01 04:13:00,
2013-03-01 06:18:00,66.2,65.6,29.53,WSW,248,1.1,1.1,98,0.00,CLR,,0.00,WeatherDisplay:10.37,2013-03-01 04:18:00,
2013-03-01 06:23:00,65.1,64.5,29.53,WSW,248,0.0,0.0,98,0.00,CLR,,0.00,WeatherDisplay:10.37,2013-03-01 04:23:00,
2013-03-01 06:28:00,64.8,64.2,29.53,WSW,248,0.0,0.0,98,0.00,CLR,,0.00,WeatherDisplay:10.37,2013-03-01 04:28:00,
2013-03-01 06:33:00,64.4,63.8,29.53,West,270,0.0,0.0,98,0.00,CLR,,0.00,WeatherDisplay:10.37,2013-03-01 04:33:00,
2013-03-01 06:38:00,65.1,64.5,29.53,West,270,1.7,1.7,98,0.00,CLR,,0.00,WeatherDisplay:10.37,2013-03-01 04:38:00,
2013-03-01 06:43:00,65.5,64.9,29.53,West,270,1.7,1.7,98,0.00,CLR,,0.00,WeatherDisplay:10.37,2013-03-01 04:43:00,
2013-03-01 06:48:00,64.6,64.0,29.53,WNW,292,2.7,2.7,98,0.00,CLR,,0.00,WeatherDisplay:10.37,2013-03-01 04:48:00,
2013-03-01 06:53:00,65.8,65.2,29.53,NW,315,3.5,3.5,98,0.00,CLR,,0.00,WeatherDisplay:10.37,2013-03-01 04:53:00,
2013-03-01 06:58:00,65.8,65.2,29.53,WNW,292,3.5,3.5,98,0.00,CLR,,0.00,WeatherDisplay:10.37,2013-03-01 04:58:00,
2013-03-01 07:00:00,66.6,66.0,29.53,WNW,292,4.2,4.2,98,0.00,CLR,,0.00,WeatherDisplay:10.37,2013-03-01 05:00:00,
2013-03-01 07:05:00,67.8,67.2,29.53,North,360,2.3,2.6,98,0.00,CLR,,0.00,WeatherDisplay:10.37,2013-03-01 05:05:00,
2013-03-01 07:06:00,67.8,67.2,29.53,North,360,2.3,2.3,98,0.00,CLR,,0.00,WeatherDisplay:10.37,2013-03-01 05:06:00,
2013-03-01 07:11:00,68.0,67.4,29.53,North,360,3.5,3.5,98,0.00,CLR,,0.00,WeatherDisplay:10.37,2013-03-01 05:11:00,
2013-03-01 07:16:00,69.1,68.5,29.53,NW,315,3.5,3.5,98,0.00,CLR,,0.00,WeatherDisplay:10.37,2013-03-01 05:16:00,
2013-03-01 07:21:00,69.3,68.7,29.53,NNW,338,3.5,3.5,98,0.00,CLR,,0.00,WeatherDisplay:10.37,2013-03-01 05:21:00,
2013-03-01 07:26:00,70.3,69.7,29.53,North,360,4.6,4.6,98,0.00,CLR,,0.00,WeatherDisplay:10.37,2013-03-01 05:26:00,
2013-03-01 07:31:00,71.1,70.5,29.53,NNW,338,3.5,3.5,98,0.00,CLR,,0.00,WeatherDisplay:10.37,2013-03-01 05:31:00,
2013-03-01 07:36:00,72.1,72.1,29.53,NW,315,3.5,3.5,100,0.00,CLR,,0.00,WeatherDisplay:10.37,2013-03-01 05:36:00,
2013-03-01 07:41:00,72.3,72.3,29.53,North,360,2.7,2.7,100,0.00,CLR,,0.00,WeatherDisplay:10.37,2013-03-01 05:41:00,
2013-03-01 07:46:00,73.9,73.9,29.53,NW,315,3.5,3.5,100,0.00,CLR,,0.00,WeatherDisplay:10.37,2013-03-01 05:46:00,
2013-03-01 07:51:00,73.8,73.8,29.53,NW,315,3.2,3.2,100,0.00,CLR,,0.00,WeatherDisplay:10.37,2013-03-01 05:51:00,
2013-03-01 07:56:00,75.6,75.6,29.53,WNW,292,3.5,3.5,100,0.00,CLR,,0.00,WeatherDisplay:10.37,2013-03-01 05:56:00,
2013-03-01 08:01:00,75.7,75.7,29.53,NNW,338,2.3,2.3,100,0.00,CLR,,0.00,WeatherDisplay:10.37,2013-03-01 06:01:00,
2013-03-01 08:06:00,78.1,78.1,29.53,North,360,2.3,2.3,100,0.00,CLR,,0.00,WeatherDisplay:10.37,2013-03-01 06:06:00,
2013-03-01 08:11:00,79.0,79.0,29.53,North,360,2.3,2.3,100,0.00,CLR,,0.00,WeatherDisplay:10.37,2013-03-01 06:11:00,
2013-03-01 08:16:00,80.2,80.2,29.53,North,360,4.6,4.6,100,0.00,CLR,,0.00,WeatherDisplay:10.37,2013-03-01 06:16:00,
2013-03-01 08:21:00,80.2,80.2,29.53,North,360,4.6,4.6,100,0.00,CLR,,0.00,WeatherDisplay:10.37,2013-03-01 06:21:00,
2013-03-01 08:26:00,78.4,78.4,29.53,North,360,2.7,2.7,100,0.00,CLR,,0.00,WeatherDisplay:10.37,2013-03-01 06:26:00,
2013-03-01 08:31:00,80.4,80.4,29.53,North,360,4.6,4.6,100,0.00,CLR,,0.00,WeatherDisplay:10.37,2013-03-01 06:31:00,
2013-03-01 08:36:00,82.4,82.4,29.53,North,360,1.1,1.1,100,0.00,CLR,,0.00,WeatherDisplay:10.37,2013-03-01 06:36:00,
2013-03-01 08:41:00,84.0,84.0,29.54,NNE,22,3.2,3.2,100,0.00,CLR,,0.00,WeatherDisplay:10.37,2013-03-01 06:41:00,
2013-03-01 08:46:00,82.9,82.9,29.54,SE,135,2.7,2.7,100,0.00,CLR,,0.00,WeatherDisplay:10.37,2013-03-01 06:46:00,
2013-03-01 08:51:00,85.5,85.5,29.54,SSE,158,2.3,2.3,100,0.00,CLR,,0.00,WeatherDisplay:10.37,2013-03-01 06:51:00,
2013-03-01 08:56:00,82.9,82.9,29.54,NE,45,4.6,4.6,100,0.00,CLR,,0.00,WeatherDisplay:10.37,2013-03-01 06:56:00,
2013-03-01 09:01:00,84.9,84.9,29.54,SSE,158,4.6,4.6,100,0.00,CLR,,0.00,WeatherDisplay:10.37,2013-03-01 07:01:00,
2013-03-01 09:06:00,83.7,83.7,29.54,SE,135,5.3,5.3,100,0.00,CLR,,0.00,WeatherDisplay:10.37,2013-03-01 07:06:00,
2013-03-01 09:11:00,82.8,82.8,29.54,East,90,5.8,5.8,100,0.00,CLR,,0.00,WeatherDisplay:10.37,2013-03-01 07:11:00,
2013-03-01 09:16:00,84.4,84.4,29.54,ESE,112,3.5,3.5,100,0.00,CLR,,0.00,WeatherDisplay:10.37,2013-03-01 07:16:00,
2013-03-01 09:21:00,84.7,84.7,29.53,ESE,112,4.6,4.6,100,0.00,CLR,,0.00,WeatherDisplay:10.37,2013-03-01 07:21:00,
2013-03-01 09:26:00,83.7,83.7,29.53,SSE,158,5.8,5.8,100,0.00,CLR,,0.00,WeatherDisplay:10.37,2013-03-01 07:26:00,
2013-03-01 09:31:00,81.9,81.9,29.54,South,180,8.3,8.3,100,0.00,CLR,,0.00,WeatherDisplay:10.37,2013-03-01 07:31:00,
2013-03-01 09:36:00,81.3,81.3,29.54,SSE,158,9.2,9.2,100,0.00,CLR,,0.00,WeatherDisplay:10.37,2013-03-01 07:36:00,
2013-03-01 09:41:00,80.2,80.2,29.54,ESE,112,6.9,6.9,100,0.00,CLR,,0.00,WeatherDisplay:10.37,2013-03-01 07:41:00,
2013-03-01 09:46:00,81.5,81.5,29.54,East,90,8.1,8.1,100,0.00,CLR,,0.00,WeatherDisplay:10.37,2013-03-01 07:46:00,
2013-03-01 09:51:00,82.0,82.0,29.54,ESE,112,8.1,8.1,100,0.00,CLR,,0.00,WeatherDisplay:10.37,2013-03-01 07:51:00,
2013-03-01 09:56:00,83.3,83.3,29.54,ESE,112,6.3,6.3,100,0.00,CLR,,0.00,WeatherDisplay:10.37,2013-03-01 07:56:00,
2013-03-01 10:01:00,82.9,82.9,29.54,ESE,112,6.3,6.3,100,0.00,CLR,,0.00,WeatherDisplay:10.37,2013-03-01 08:01:00,
2013-03-01 10:06:00,81.5,81.5,29.55,NNE,22,9.2,9.2,100,0.00,CLR,,0.00,WeatherDisplay:10.37,2013-03-01 08:06:00,
2013-03-01 10:11:00,81.1,81.1,29.55,ESE,112,9.2,9.2,100,0.00,CLR,,0.00,WeatherDisplay:10.37,2013-03-01 08:11:00,
2013-03-01 10:16:00,83.3,83.3,29.55,ESE,112,6.3,6.3,100,0.00,CLR,,0.00,WeatherDisplay:10.37,2013-03-01 08:16:00,
2013-03-01 10:21:00,80.6,80.6,29.55,South,180,9.2,9.2,100,0.00,CLR,,0.00,WeatherDisplay:10.37,2013-03-01 08:21:00,
2013-03-01 10:26:00,80.6,80.6,29.55,SE,135,6.9,6.9,100,0.00,CLR,,0.00,WeatherDisplay:10.37,2013-03-01 08:26:00,
2013-03-01 10:31:00,82.8,82.8,29.55,ESE,112,7.3,7.3,100,0.00,CLR,,0.00,WeatherDisplay:10.37,2013-03-01 08:31:00,
2013-03-01 10:36:00,82.4,82.4,29.55,South,180,5.8,5.9,100,0.00,CLR,,0.00,WeatherDisplay:10.37,2013-03-01 08:36:00,
2013-03-01 10:41:00,81.3,81.3,29.54,ESE,112,8.1,8.1,100,0.00,CLR,,0.00,WeatherDisplay:10.37,2013-03-01 08:41:00,
2013-03-01 10:46:00,82.8,82.8,29.54,South,180,8.1,8.1,100,0.00,CLR,,0.00,WeatherDisplay:10.37,2013-03-01 08:46:00,
2013-03-01 10:51:00,83.1,83.1,29.54,SSE,158,7.8,7.8,100,0.00,CLR,,0.00,WeatherDisplay:10.37,2013-03-01 08:51:00,
2013-03-01 10:56:00,82.6,82.6,29.54,ESE,112,6.9,6.9,100,0.00,CLR,,0.00,WeatherDisplay:10.37,2013-03-01 08:56:00,
2013-03-01 11:01:00,82.6,82.6,29.54,ESE,112,9.2,9.2,100,0.00,CLR,,0.00,WeatherDisplay:10.37,2013-03-01 09:01:00,
2013-03-01 11:06:00,82.0,82.0,29.54,ESE,112,10.4,10.4,100,0.00,CLR,,0.00,WeatherDisplay:10.37,2013-03-01 09:06:00,
2013-03-01 11:11:00,80.2,80.2,29.54,SSE,158,9.2,9.2,100,0.00,CLR,,0.00,WeatherDisplay:10.37,2013-03-01 09:11:00,
2013-03-01 11:16:00,79.9,79.9,29.54,East,90,9.2,9.2,100,0.00,CLR,,0.00,WeatherDisplay:10.37,2013-03-01 09:16:00,
2013-03-01 11:21:00,80.4,80.4,29.54,SSE,158,6.8,6.8,100,0.00,CLR,,0.00,WeatherDisplay:10.37,2013-03-01 09:21:00,
2013-03-01 11:26:00,80.2,80.2,29.54,East,90,10.4,10.4,100,0.00,CLR,,0.00,WeatherDisplay:10.37,2013-03-01 09:26:00,
2013-03-01 11:31:00,79.7,79.7,29.53,ESE,112,9.2,9.2,100,0.00,CLR,,0.00,WeatherDisplay:10.37,2013-03-01 09:31:00,
2013-03-01 11:36:00,81.1,81.1,29.53,ESE,112,9.9,9.9,100,0.00,CLR,,0.00,WeatherDisplay:10.37,2013-03-01 09:36:00,
2013-03-01 11:41:00,80.8,80.8,29.53,NE,45,6.9,6.9,100,0.00,CLR,,0.00,WeatherDisplay:10.37,2013-03-01 09:41:00,
2013-03-01 11:46:00,80.2,80.2,29.53,SSE,158,8.1,8.1,100,0.00,CLR,,0.00,WeatherDisplay:10.37,2013-03-01 09:46:00,
2013-03-01 11:51:00,80.1,80.1,29.53,ESE,112,6.9,6.9,100,0.00,CLR,,0.00,WeatherDisplay:10.37,2013-03-01 09:51:00,
2013-03-01 11:56:00,81.1,81.1,29.53,SE,135,8.1,8.1,100,0.00,CLR,,0.00,WeatherDisplay:10.37,2013-03-01 09:56:00,
2013-03-01 12:01:00,82.6,82.6,29.53,SSE,158,6.9,6.9,100,0.00,CLR,,0.00,WeatherDisplay:10.37,2013-03-01 10:01:00,
2013-03-01 12:07:00,82.8,82.8,29.53,ESE,112,8.1,8.1,100,0.00,CLR,,0.00,WeatherDisplay:10.37,2013-03-01 10:07:00,
2013-03-01 12:12:00,81.3,81.3,29.53,ESE,112,10.4,10.4,100,0.00,CLR,,0.00,WeatherDisplay:10.37,2013-03-01 10:12:00,
2013-03-01 12:17:00,81.9,81.9,29.53,SSE,158,9.2,9.2,100,0.00,CLR,,0.00,WeatherDisplay:10.37,2013-03-01 10:17:00,
2013-03-01 12:22:00,82.6,82.6,29.53,ESE,112,9.2,9.2,100,0.00,CLR,,0.00,WeatherDisplay:10.37,2013-03-01 10:22:00,
2013-03-01 12:27:00,80.8,80.8,29.53,SE,135,9.2,9.2,100,0.00,CLR,,0.00,WeatherDisplay:10.37,2013-03-01 10:27:00,
2013-03-01 12:32:00,81.5,81.5,29.52,SSE,158,6.8,7.1,100,0.00,CLR,,0.00,WeatherDisplay:10.37,2013-03-01 10:32:00,
2013-03-01 12:37:00,82.0,82.0,29.52,ESE,112,10.4,10.4,100,0.00,CLR,,0.00,WeatherDisplay:10.37,2013-03-01 10:37:00,
2013-03-01 12:42:00,81.5,81.5,29.52,East,90,10.4,10.4,100,0.00,CLR,,0.00,WeatherDisplay:10.37,2013-03-01 10:42:00,
2013-03-01 12:47:00,81.5,81.5,29.52,ESE,112,10.4,10.4,100,0.00,CLR,,0.00,WeatherDisplay:10.37,2013-03-01 10:47:00,
2013-03-01 12:52:00,81.9,81.9,29.52,ESE,112,10.4,10.4,100,0.00,CLR,,0.00,WeatherDisplay:10.37,2013-03-01 10:52:00,
2013-03-01 12:57:00,81.9,81.9,29.51,SSE,158,10.4,10.4,100,0.00,CLR,,0.00,WeatherDisplay:10.37,2013-03-01 10:57:00,
2013-03-01 13:02:00,82.2,82.2,29.51,ESE,112,9.9,9.9,100,0.00,CLR,,0.00,WeatherDisplay:10.37,2013-03-01 11:02:00,
2013-03-01 13:07:00,79.7,79.7,29.51,South,180,10.9,10.9,100,0.00,CLR,,0.00,WeatherDisplay:10.37,2013-03-01 11:07:00,
2013-03-01 13:12:00,80.6,80.6,29.51,SSE,158,13.0,13.0,100,0.00,CLR,,0.00,WeatherDisplay:10.37,2013-03-01 11:12:00,
2013-03-01 13:17:00,80.6,80.6,29.51,SSE,158,13.0,13.0,100,0.00,CLR,,0.00,WeatherDisplay:10.37,2013-03-01 11:17:00,
2013-03-01 13:22:00,81.0,81.0,29.51,SE,135,12.7,12.7,100,0.00,CLR,,0.00,WeatherDisplay:10.37,2013-03-01 11:22:00,
2013-03-01 13:27:00,81.3,81.3,29.51,ESE,112,8.1,8.2,100,0.00,CLR,,0.00,WeatherDisplay:10.37,2013-03-01 11:27:00,
2013-03-01 13:32:00,80.4,80.4,29.50,ESE,112,10.4,10.4,100,0.00,CLR,,0.00,WeatherDisplay:10.37,2013-03-01 11:32:00,
2013-03-01 13:37:00,80.8,80.8,29.50,ESE,112,11.9,11.9,100,0.00,CLR,,0.00,WeatherDisplay:10.37,2013-03-01 11:37:00,
2013-03-01 13:42:00,81.9,81.9,29.50,SE,135,11.5,11.5,100,0.00,CLR,,0.00,WeatherDisplay:10.37,2013-03-01 11:42:00,
2013-03-01 13:47:00,81.5,81.5,29.50,SSE,158,11.5,11.5,100,0.00,CLR,,0.00,WeatherDisplay:10.37,2013-03-01 11:47:00,
2013-03-01 13:52:00,81.7,81.7,29.50,SE,135,13.8,13.8,100,0.00,CLR,,0.00,WeatherDisplay:10.37,2013-03-01 11:52:00,
2013-03-01 13:58:00,81.4,81.4,29.50,SE,133,8.0,14.0,100,0.00,CLR,,0.00,WeatherDisplay:10.37,2013-03-01 11:58:00,
2013-03-01 14:03:00,80.2,80.2,29.50,South,180,11.5,11.5,100,0.00,CLR,,0.00,WeatherDisplay:10.37,2013-03-01 12:03:00,
2013-03-01 14:08:00,81.3,81.3,29.50,SSE,158,10.9,10.9,100,0.00,CLR,,0.00,WeatherDisplay:10.37,2013-03-01 12:08:00,
2013-03-01 14:13:00,81.6,81.6,29.50,SSE,150,9.0,14.0,100,0.00,CLR,,0.00,WeatherDisplay:10.37,2013-03-01 12:13:00,
2013-03-01 14:18:00,80.1,80.1,29.50,SSE,158,11.5,11.5,100,0.00,CLR,,0.00,WeatherDisplay:10.37,2013-03-01 12:18:00,
2013-03-01 14:23:00,82.0,82.0,29.50,SSE,158,9.2,9.2,100,0.00,CLR,,0.00,WeatherDisplay:10.37,2013-03-01 12:23:00,
2013-03-01 14:28:00,81.0,81.0,29.50,South,180,11.5,11.5,100,0.00,CLR,,0.00,WeatherDisplay:10.37,2013-03-01 12:28:00,
2013-03-01 14:33:00,82.2,82.2,29.50,ESE,112,10.4,10.4,100,0.00,CLR,,0.00,WeatherDisplay:10.37,2013-03-01 12:33:00,
2013-03-01 14:38:00,81.9,81.9,29.50,East,90,11.5,11.5,100,0.00,CLR,,0.00,WeatherDisplay:10.37,2013-03-01 12:38:00,
2013-03-01 14:43:00,83.6,83.6,29.49,SE,125,9.0,14.0,100,0.00,CLR,,0.00,WeatherDisplay:10.37,2013-03-01 12:43:00,
2013-03-01 14:48:00,82.4,82.4,29.49,SE,135,10.4,10.4,100,0.00,CLR,,0.00,WeatherDisplay:10.37,2013-03-01 12:48:00,
2013-03-01 14:53:00,83.1,83.1,29.49,ESE,112,11.5,11.5,100,0.00,CLR,,0.00,WeatherDisplay:10.37,2013-03-01 12:53:00,
2013-03-01 14:58:00,83.5,83.5,29.49,East,90,14.0,14.0,100,0.00,CLR,,0.00,WeatherDisplay:10.37,2013-03-01 12:58:00,
2013-03-01 15:03:00,82.0,82.0,29.49,SE,135,12.7,12.7,100,0.00,CLR,,0.00,WeatherDisplay:10.37,2013-03-01 13:03:00,
2013-03-01 15:08:00,82.9,82.9,29.48,ESE,112,11.5,11.5,100,0.00,CLR,,0.00,WeatherDisplay:10.37,2013-03-01 13:08:00,
2013-03-01 15:13:00,82.9,82.9,29.48,SSE,158,10.4,10.4,100,0.00,CLR,,0.00,WeatherDisplay:10.37,2013-03-01 13:13:00,
2013-03-01 15:18:00,83.5,83.5,29.48,ESE,112,11.5,11.5,100,0.00,CLR,,0.00,WeatherDisplay:10.37,2013-03-01 13:18:00,
2013-03-01 15:23:00,82.4,82.4,29.48,ESE,112,8.3,8.3,100,0.00,CLR,,0.00,WeatherDisplay:10.37,2013-03-01 13:23:00,
2013-03-01 15:28:00,82.4,82.4,29.48,ESE,112,8.3,8.3,100,0.00,CLR,,0.00,WeatherDisplay:10.37,2013-03-01 13:28:00,
2013-03-01 15:33:00,82.2,82.2,29.48,ESE,112,11.5,11.5,100,0.00,CLR,,0.00,WeatherDisplay:10.37,2013-03-01 13:33:00,
2013-03-01 15:38:00,82.9,82.9,29.48,ESE,112,10.4,10.4,100,0.00,CLR,,0.00,WeatherDisplay:10.37,2013-03-01 13:38:00,
2013-03-01 15:43:00,82.9,82.9,29.47,ESE,112,10.4,10.4,100,0.00,CLR,,0.00,WeatherDisplay:10.37,2013-03-01 13:43:00,
2013-03-01 15:48:00,82.4,82.4,29.47,ESE,112,9.2,9.2,100,0.00,CLR,,0.00,WeatherDisplay:10.37,2013-03-01 13:48:00,
2013-03-01 15:53:00,82.4,82.4,29.47,ESE,112,10.4,10.4,100,0.00,CLR,,0.00,WeatherDisplay:10.37,2013-03-01 13:53:00,
2013-03-01 15:58:00,82.5,82.5,29.47,SE,125,8.0,13.0,100,0.00,CLR,,0.00,WeatherDisplay:10.37,2013-03-01 13:58:00,
2013-03-01 16:03:00,82.0,82.0,29.47,SSE,158,10.4,10.4,100,0.00,CLR,,0.00,WeatherDisplay:10.37,2013-03-01 14:03:00,
2013-03-01 16:08:00,81.1,81.1,29.47,East,90,10.4,10.4,100,0.00,CLR,,0.00,WeatherDisplay:10.37,2013-03-01 14:08:00,
2013-03-01 16:13:00,81.3,81.3,29.47,East,90,10.4,10.4,100,0.00,CLR,,0.00,WeatherDisplay:10.37,2013-03-01 14:13:00,
2013-03-01 16:18:00,81.0,81.0,29.47,East,90,10.9,10.9,100,0.00,CLR,,0.00,WeatherDisplay:10.37,2013-03-01 14:18:00,
2013-03-01 16:23:00,81.9,81.9,29.47,SSE,158,9.2,9.2,100,0.00,CLR,,0.00,WeatherDisplay:10.37,2013-03-01 14:23:00,
2013-03-01 16:28:00,82.0,82.0,29.47,ESE,112,11.5,11.5,100,0.00,CLR,,0.00,WeatherDisplay:10.37,2013-03-01 14:28:00,
2013-03-01 16:33:00,80.6,80.6,29.47,ESE,112,10.4,10.4,100,0.00,CLR,,0.00,WeatherDisplay:10.37,2013-03-01 14:33:00,
2013-03-01 16:38:00,81.9,81.9,29.47,ESE,112,10.4,10.4,100,0.00,CLR,,0.00,WeatherDisplay:10.37,2013-03-01 14:38:00,
2013-03-01 16:43:00,82.0,82.0,29.48,East,90,10.4,10.4,100,0.00,CLR,,0.00,WeatherDisplay:10.37,2013-03-01 14:43:00,
2013-03-01 16:48:00,81.0,81.0,29.48,SE,135,10.4,10.4,100,0.00,CLR,,0.00,WeatherDisplay:10.37,2013-03-01 14:48:00,
2013-03-01 16:53:00,81.7,81.7,29.48,SSE,158,12.7,12.7,100,0.00,CLR,,0.00,WeatherDisplay:10.37,2013-03-01 14:53:00,
2013-03-01 16:58:00,82.0,82.0,29.48,SE,135,9.2,9.2,100,0.00,CLR,,0.00,WeatherDisplay:10.37,2013-03-01 14:58:00,
2013-03-01 17:03:00,80.8,80.8,29.48,SE,135,11.5,11.5,100,0.00,CLR,,0.00,WeatherDisplay:10.37,2013-03-01 15:03:00,
2013-03-01 17:08:00,80.6,80.6,29.49,ESE,112,12.4,12.4,100,0.00,CLR,,0.00,WeatherDisplay:10.37,2013-03-01 15:08:00,
2013-03-01 17:13:00,80.2,80.2,29.49,South,180,11.5,11.5,100,0.00,CLR,,0.00,WeatherDisplay:10.37,2013-03-01 15:13:00,
2013-03-01 17:18:00,80.2,80.2,29.48,ESE,112,9.2,9.2,100,0.00,CLR,,0.00,WeatherDisplay:10.37,2013-03-01 15:18:00,
2013-03-01 17:23:00,79.7,79.7,29.48,East,90,8.1,8.1,100,0.00,CLR,,0.00,WeatherDisplay:10.37,2013-03-01 15:23:00,
2013-03-01 17:28:00,80.8,80.8,29.48,ESE,112,8.1,8.1,100,0.00,CLR,,0.00,WeatherDisplay:10.37,2013-03-01 15:28:00,
2013-03-01 17:33:00,80.2,80.2,29.48,ESE,112,6.9,6.9,100,0.00,CLR,,0.00,WeatherDisplay:10.37,2013-03-01 15:33:00,
2013-03-01 17:38:00,79.3,79.3,29.48,SE,135,9.2,9.2,100,0.00,CLR,,0.00,WeatherDisplay:10.37,2013-03-01 15:38:00,
2013-03-01 17:43:00,80.2,80.2,29.48,South,180,11.5,11.5,100,0.00,CLR,,0.00,WeatherDisplay:10.37,2013-03-01 15:43:00,
2013-03-01 17:48:00,79.7,79.7,29.48,ESE,112,9.9,9.9,100,0.00,CLR,,0.00,WeatherDisplay:10.37,2013-03-01 15:48:00,
2013-03-01 17:53:00,79.3,79.3,29.48,ESE,112,9.2,9.2,100,0.00,CLR,,0.00,WeatherDisplay:10.37,2013-03-01 15:53:00,
2013-03-01 17:58:00,80.4,80.4,29.48,ESE,112,6.9,6.9,100,0.00,CLR,,0.00,WeatherDisplay:10.37,2013-03-01 15:58:00,
2013-03-01 18:03:00,79.0,79.0,29.48,ESE,112,10.4,10.4,100,0.00,CLR,,0.00,WeatherDisplay:10.37,2013-03-01 16:03:00,
2013-03-01 18:08:00,79.0,79.0,29.49,ESE,112,8.3,8.3,100,0.00,CLR,,0.00,WeatherDisplay:10.37,2013-03-01 16:08:00,
2013-03-01 18:13:00,78.8,78.8,29.49,SE,135,6.9,6.9,100,0.00,CLR,,0.00,WeatherDisplay:10.37,2013-03-01 16:13:00,
2013-03-01 18:18:00,78.3,78.3,29.49,ESE,112,6.9,6.9,100,0.00,CLR,,0.00,WeatherDisplay:10.37,2013-03-01 16:18:00,
2013-03-01 18:23:00,79.3,79.3,29.49,ESE,112,4.6,4.6,100,0.00,CLR,,0.00,WeatherDisplay:10.37,2013-03-01 16:23:00,
2013-03-01 18:28:00,79.2,79.2,29.49,ESE,112,5.8,5.8,100,0.00,CLR,,0.00,WeatherDisplay:10.37,2013-03-01 16:28:00,
2013-03-01 18:33:00,79.0,79.0,29.50,SSE,158,6.9,6.9,100,0.00,CLR,,0.00,WeatherDisplay:10.37,2013-03-01 16:33:00,
2013-03-01 18:38:00,78.3,78.3,29.50,ESE,112,6.9,6.9,100,0.00,CLR,,0.00,WeatherDisplay:10.37,2013-03-01 16:38:00,
2013-03-01 18:43:00,77.7,77.7,29.50,SE,135,6.9,6.9,100,0.00,CLR,,0.00,WeatherDisplay:10.37,2013-03-01 16:43:00,
2013-03-01 18:48:00,76.6,76.6,29.50,ESE,112,8.1,8.1,100,0.00,CLR,,0.00,WeatherDisplay:10.37,2013-03-01 16:48:00,
2013-03-01 18:53:00,76.8,76.8,29.50,SE,135,5.8,5.8,100,0.00,CLR,,0.00,WeatherDisplay:10.37,2013-03-01 16:53:00,
2013-03-01 18:58:00,76.6,76.6,29.50,SSE,158,6.9,6.9,100,0.00,CLR,,0.00,WeatherDisplay:10.37,2013-03-01 16:58:00,
2013-03-01 19:03:00,76.6,76.6,29.50,SE,135,5.8,5.8,100,0.00,CLR,,0.00,WeatherDisplay:10.37,2013-03-01 17:03:00,
2013-03-01 19:08:00,75.0,75.0,29.50,SSE,158,6.9,6.9,100,0.00,CLR,,0.00,WeatherDisplay:10.37,2013-03-01 17:08:00,
2013-03-01 19:13:00,75.4,75.4,29.50,ESE,112,5.8,5.8,100,0.00,CLR,,0.00,WeatherDisplay:10.37,2013-03-01 17:13:00,
2013-03-01 19:18:00,75.2,75.2,29.50,South,180,5.8,5.8,100,0.00,CLR,,0.00,WeatherDisplay:10.37,2013-03-01 17:18:00,
2013-03-01 19:23:00,75.6,75.6,29.50,ESE,112,5.8,5.8,100,0.00,CLR,,0.00,WeatherDisplay:10.37,2013-03-01 17:23:00,
2013-03-01 19:28:00,75.0,75.0,29.50,ESE,112,4.6,4.6,100,0.00,CLR,,0.00,WeatherDisplay:10.37,2013-03-01 17:28:00,
2013-03-01 19:33:00,74.5,74.5,29.50,ENE,68,4.6,4.6,100,0.00,CLR,,0.00,WeatherDisplay:10.37,2013-03-01 17:33:00,
2013-03-01 19:38:00,73.6,73.6,29.50,ESE,112,4.6,4.6,100,0.00,CLR,,0.00,WeatherDisplay:10.37,2013-03-01 17:38:00,
2013-03-01 19:43:00,74.7,74.7,29.51,ESE,112,4.6,4.6,100,0.00,CLR,,0.00,WeatherDisplay:10.37,2013-03-01 17:43:00,
2013-03-01 19:48:00,74.7,74.7,29.51,ESE,112,5.8,5.8,100,0.00,CLR,,0.00,WeatherDisplay:10.37,2013-03-01 17:48:00,
2013-03-01 19:53:00,74.1,74.1,29.51,ESE,112,5.8,5.8,100,0.00,CLR,,0.00,WeatherDisplay:10.37,2013-03-01 17:53:00,
2013-03-01 19:58:00,74.7,74.7,29.51,ESE,112,5.8,5.8,100,0.00,CLR,,0.00,WeatherDisplay:10.37,2013-03-01 17:58:00,
2013-03-01 20:03:00,73.6,73.6,29.51,ESE,112,6.9,6.9,100,0.00,CLR,,0.00,WeatherDisplay:10.37,2013-03-01 18:03:00,
2013-03-01 20:08:00,73.9,73.9,29.51,ENE,68,5.8,5.8,100,0.00,CLR,,0.00,WeatherDisplay:10.37,2013-03-01 18:08:00,
2013-03-01 20:13:00,74.5,74.5,29.51,East,90,5.3,5.3,100,0.00,CLR,,0.00,WeatherDisplay:10.37,2013-03-01 18:13:00,
2013-03-01 20:18:00,73.9,99.9,29.51,ESE,112,6.3,6.3,0,0.00,CLR,,0.00,WeatherDisplay:10.37,2013-03-01 18:18:00,
2013-03-01 20:23:00,73.8,99.9,29.51,ESE,112,5.8,5.8,0,0.00,CLR,,0.00,WeatherDisplay:10.37,2013-03-01 18:23:00,
2013-03-01 20:28:00,74.5,99.9,29.51,East,90,4.6,4.6,0,0.00,CLR,,0.00,WeatherDisplay:10.37,2013-03-01 18:28:00,
2013-03-01 20:33:00,74.1,60.7,29.51,East,90,5.8,5.8,63,0.00,CLR,,0.00,WeatherDisplay:10.37,2013-03-01 18:33:00,
2013-03-01 20:38:00,74.3,72.8,29.51,ESE,112,4.6,4.6,95,0.00,CLR,,0.00,WeatherDisplay:10.37,2013-03-01 18:38:00,
2013-03-01 20:43:00,73.2,72.6,29.52,East,90,6.9,6.9,98,0.00,CLR,,0.00,WeatherDisplay:10.37,2013-03-01 18:43:00,
2013-03-01 20:48:00,74.3,73.7,29.52,ESE,112,4.2,4.2,98,0.00,CLR,,0.00,WeatherDisplay:10.37,2013-03-01 18:48:00,
2013-03-01 20:53:00,73.2,72.6,29.52,ESE,112,5.8,5.8,98,0.00,CLR,,0.00,WeatherDisplay:10.37,2013-03-01 18:53:00,
2013-03-01 20:58:00,73.2,72.6,29.52,ESE,112,3.7,3.7,98,0.00,CLR,,0.00,WeatherDisplay:10.37,2013-03-01 18:58:00,
2013-03-01 21:03:00,73.6,73.0,29.52,ESE,112,5.8,5.8,98,0.00,CLR,,0.00,WeatherDisplay:10.37,2013-03-01 19:03:00,
2013-03-01 21:08:00,72.7,72.1,29.52,ESE,112,4.6,4.6,98,0.00,CLR,,0.00,WeatherDisplay:10.37,2013-03-01 19:08:00,
2013-03-01 21:13:00,73.6,73.0,29.52,ESE,112,4.6,4.6,98,0.00,CLR,,0.00,WeatherDisplay:10.37,2013-03-01 19:13:00,
2013-03-01 21:18:00,73.6,73.0,29.53,East,90,2.3,2.3,98,0.00,CLR,,0.00,WeatherDisplay:10.37,2013-03-01 19:18:00,
2013-03-01 21:23:00,73.6,73.0,29.53,ESE,112,3.5,3.5,98,0.00,CLR,,0.00,WeatherDisplay:10.37,2013-03-01 19:23:00,
2013-03-01 21:28:00,73.2,72.6,29.53,SE,135,3.5,3.5,98,0.00,CLR,,0.00,WeatherDisplay:10.37,2013-03-01 19:28:00,
2013-03-01 21:33:00,72.9,72.3,29.53,ESE,112,3.5,3.5,98,0.00,CLR,,0.00,WeatherDisplay:10.37,2013-03-01 19:33:00,
2013-03-01 21:38:00,72.3,71.7,29.53,ESE,112,3.5,3.5,98,0.00,CLR,,0.00,WeatherDisplay:10.37,2013-03-01 19:38:00,
2013-03-01 21:43:00,73.6,73.0,29.53,SSE,158,3.5,3.5,98,0.00,CLR,,0.00,WeatherDisplay:10.37,2013-03-01 19:43:00,
2013-03-01 21:48:00,73.2,72.6,29.53,NE,45,4.6,4.6,98,0.00,CLR,,0.00,WeatherDisplay:10.37,2013-03-01 19:48:00,
2013-03-01 21:53:00,73.0,72.4,29.53,SE,135,5.8,5.8,98,0.00,CLR,,0.00,WeatherDisplay:10.37,2013-03-01 19:53:00,
2013-03-01 21:58:00,73.2,72.6,29.53,SSE,158,2.7,2.7,98,0.00,CLR,,0.00,WeatherDisplay:10.37,2013-03-01 19:58:00,
2013-03-01 22:03:00,73.0,72.4,29.53,East,90,5.3,5.3,98,0.00,CLR,,0.00,WeatherDisplay:10.37,2013-03-01 20:03:00,
2013-03-01 22:08:00,73.4,72.8,29.53,ESE,112,4.7,4.7,98,0.00,CLR,,0.00,WeatherDisplay:10.37,2013-03-01 20:08:00,
2013-03-01 22:13:00,73.4,72.8,29.53,ESE,112,3.5,3.5,98,0.00,CLR,,0.00,WeatherDisplay:10.37,2013-03-01 20:13:00,
2013-03-01 22:18:00,73.0,72.4,29.53,SE,135,2.3,2.3,98,0.00,CLR,,0.00,WeatherDisplay:10.37,2013-03-01 20:18:00,
2013-03-01 22:23:00,72.9,72.3,29.53,South,180,2.3,2.3,98,0.00,CLR,,0.00,WeatherDisplay:10.37,2013-03-01 20:23:00,
2013-03-01 22:29:00,72.7,72.1,29.53,ESE,112,2.3,2.4,98,0.00,CLR,,0.00,WeatherDisplay:10.37,2013-03-01 20:29:00,
2013-03-01 22:34:00,72.5,71.9,29.53,South,180,2.3,2.3,98,0.00,CLR,,0.00,WeatherDisplay:10.37,2013-03-01 20:34:00,
2013-03-01 22:39:00,72.5,71.9,29.53,ESE,112,3.7,3.7,98,0.00,CLR,,0.00,WeatherDisplay:10.37,2013-03-01 20:39:00,
2013-03-01 22:44:00,72.7,72.1,29.53,South,180,2.3,2.3,98,0.00,CLR,,0.00,WeatherDisplay:10.37,2013-03-01 20:44:00,
2013-03-01 22:49:00,72.9,72.3,29.53,SSE,158,2.3,2.3,98,0.00,CLR,,0.00,WeatherDisplay:10.37,2013-03-01 20:49:00,
2013-03-01 22:54:00,72.1,71.5,29.53,SSE,158,2.3,2.3,98,0.00,CLR,,0.00,WeatherDisplay:10.37,2013-03-01 20:54:00,
2013-03-01 22:59:00,72.5,71.9,29.53,South,180,2.3,2.3,98,0.00,CLR,,0.00,WeatherDisplay:10.37,2013-03-01 20:59:00,
2013-03-01 23:04:00,72.5,71.9,29.53,South,180,2.3,2.3,98,0.00,CLR,,0.00,WeatherDisplay:10.37,2013-03-01 21:04:00,
2013-03-01 23:09:00,73.0,72.4,29.53,South,180,3.5,3.5,98,0.00,CLR,,0.00,WeatherDisplay:10.37,2013-03-01 21:09:00,
2013-03-01 23:14:00,72.9,72.3,29.53,SE,135,3.5,3.5,98,0.00,CLR,,0.00,WeatherDisplay:10.37,2013-03-01 21:14:00,
2013-03-01 23:19:00,72.7,72.1,29.53,SSE,158,2.3,2.3,98,0.00,CLR,,0.00,WeatherDisplay:10.37,2013-03-01 21:19:00,
2013-03-01 23:24:00,73.0,72.4,29.53,South,180,2.3,2.3,98,0.00,CLR,,0.00,WeatherDisplay:10.37,2013-03-01 21:24:00,
2013-03-01 23:29:00,71.8,71.2,29.53,ESE,112,1.1,1.1,98,0.00,CLR,,0.00,WeatherDisplay:10.37,2013-03-01 21:29:00,
2013-03-01 23:34:00,72.5,71.9,29.53,South,180,1.1,1.7,98,0.00,CLR,,0.00,WeatherDisplay:10.37,2013-03-01 21:34:00,
2013-03-01 23:39:00,72.9,72.3,29.53,SE,135,2.3,2.6,98,0.00,CLR,,0.00,WeatherDisplay:10.37,2013-03-01 21:39:00,
2013-03-01 23:44:00,73.0,72.4,29.53,ESE,112,2.3,2.3,98,0.00,CLR,,0.00,WeatherDisplay:10.37,2013-03-01 21:44:00,
2013-03-01 23:49:00,72.0,71.4,29.53,ESE,112,3.2,3.2,98,0.00,CLR,,0.00,WeatherDisplay:10.37,2013-03-01 21:49:00,
2013-03-01 23:54:00,72.1,71.5,29.54,SE,135,2.3,2.3,98,0.00,CLR,,0.00,WeatherDisplay:10.37,2013-03-01 21:54:00,
2013-03-01 23:59:00,72.1,71.5,29.54,SE,135,2.3,2.3,98,0.00,CLR,,0.00,WeatherDisplay:10.37,2013-03-01 21:59:00,